Flag for Canada Weather for the Past 2 Weeks in Conception Bay South, Newfoundland and Labrador, Canada

Now
23 °F

Mostly cloudy.


Feels Like: 14 °F
Forecast: 22 / 30 °F
Wind: 8 mph from Northwest

Location: St. John's

Current Time: Feb 7, 2016 at 10:15:19 AM

Latest Report: Feb 7, 2016 at 9:30 AM


Visibility: 15 mi

Pressure: 30.15 "Hg

Humidity: 68%

Dew point: 14 °F

Location of Conception Bay SouthLocation

Historic Weather in Conception Bay South — Graph

°F

Conception Bay South Temperature Yesterday

Maximum temperature yesterday: 55 °F (at 5:30 AM)
Minimum temperature yesterday: 21 °F (at 11:30 PM)
Average temperature yesterday: 37 °F

High & Low Weather Summary for the Past Weeks

 TemperatureHumidityPressure
High55 °F (Feb 6, 5:30 AM)100% (Jan 27, 11:30 AM)30.39 "Hg (Jan 27, 11:30 AM)
Low10 °F (Jan 26, 6:30 AM)50% (Jan 25, 12:30 PM)28.69 "Hg (Jan 30, 4:30 AM)
Average29 °F83%29.85 "Hg
* Reported Jan 23 9:30 AM — Feb 7 9:30 AM, Conception Bay South, Weather by CustomWeather, © 2016

Note: Actual official high and low records may vary slightly from our data, if they occured in-between our weather recording intervals... More about our weather records

Advertising

Conception Bay South Weather History for the Previous 24 Hours

 ConditionsComfort  
Time TempWeatherWind HumidityBarometerVisibility
9:30 AM
Sun, Feb 7
23 °FMostly cloudy.8 mph68%30.15 "Hg15 mi
8:30 AM21 °FPartly sunny.8 mph74%30.16 "Hg15 mi
7:30 AM19 °FBroken clouds.13 mph73%30.17 "Hg15 mi
6:30 AM19 °FPassing clouds.12 mph73%30.16 "Hg15 mi
5:30 AM21 °FPassing clouds.18 mph68%30.16 "Hg15 mi
4:30 AM21 °FPassing clouds.15 mph74%30.15 "Hg15 mi
3:30 AM21 °FPassing clouds.14 mph68%30.14 "Hg15 mi
2:30 AM21 °FPassing clouds.15 mph74%30.13 "Hg15 mi
1:30 AM21 °FPassing clouds.13 mph68%30.11 "Hg15 mi
12:30 AM21 °FPassing clouds.18 mph68%30.11 "Hg15 mi
11:30 PM
Sat, Feb 6
21 °FPassing clouds.12 mph74%30.09 "Hg15 mi
10:30 PM23 °FPassing clouds.16 mph74%30.05 "Hg15 mi
9:30 PM25 °FPassing clouds.20 mph63%30.02 "Hg15 mi
8:30 PM25 °FClear.24 mph59%29.98 "Hg15 mi
7:30 PM27 °FPassing clouds.28 mph64%29.93 "Hg15 mi
6:30 PM27 °FClear.32 mph64%29.86 "Hg15 mi
5:30 PM28 °FPassing clouds.31 mph69%29.83 "Hg15 mi
4:30 PM30 °FPassing clouds.30 mph69%29.75 "Hg15 mi
3:30 PM30 °FScattered clouds.31 mph69%29.68 "Hg15 mi
2:30 PM28 °FScattered clouds.32 mph74%29.60 "Hg15 mi
1:30 PM28 °FScattered clouds.37 mph74%29.54 "Hg15 mi
12:30 PM28 °FOvercast.44 mph74%29.46 "Hg15 mi
11:30 AM32 °FDrizzle. Overcast.47 mph87%29.27 "Hg8 mi
10:30 AM41 °FDrizzle. Overcast.36 mph93%29.06 "Hg15 mi
Weather by CustomWeather, © 2016

See weather overviewHow to use our weather pages